Weather History for Monticello, NY

Change the Weather History Date:

Sunday, January 19, 2014

  Actual Average Record
Temperature  
Mean Temperature 22 °F -  
Max Temperature 28 °F 24 °F 44 °F (2013)
Min Temperature 15 °F 12 °F -11 °F (1997)
Degree Days  
Heating Degree Days 44    
Moisture  
Dew Point 13 °F    
Average Humidity 67    
Maximum Humidity 79    
Minimum Humidity 59    
Precipitation  
Precipitation 0.00 in - - ()
Sea Level Pressure  
Sea Level Pressure 29.64 in    
Wind  
Wind Speed 9 mph (WSW)    
Max Wind Speed 18 mph    
Max Gust Speed 31 mph    
Visibility 9 miles    
Events      
Averages and records for this station are not official NWS values.
T = Trace of Precipitation, MM = Missing Value Source: NWS Daily Summary

Daily Weather History Graph

Daily Weather History Graph

Search for Another Location

Airport:

Trip Planner

Search our weather history database for the weather conditions in past years. The results will help you decide how hot, cold, wet, or windy it might be!

Date:

Astronomy

Jan. 19, 2014 Rise Set
Actual Time 7:21 AM EST 4:58 PM EST
Civil Twilight 6:51 AM EST 5:28 PM EST
Nautical Twilight 6:17 AM EST 6:02 PM EST
Astronomical Twilight 5:44 AM EST 6:36 PM EST
Moon 8:37 PM EST (1/19) 8:47 AM EST (1/19)
Length of Visible Light 10h 37m
Length of Day
9h 36m
Waning Gibbous, 89% of the Moon is Illuminated
Jan 19
Waning Gibbous
Jan 24
Last Quarter
Jan 30
New
Feb 6
First Quarter
Feb 14
Full

Hourly Weather History & Observations

Time (EST) Temp. Windchill Dew Point Humidity Pressure Visibility Wind Dir Wind Speed Gust Speed Precip Events Conditions
12:15 AM 19.4 °F 7.9 °F 12.2 °F 74% 29.77 in 10.0 mi West 10.4 mph - N/A   Overcast
12:35 AM 19.4 °F 7.9 °F 12.2 °F 74% 29.77 in 10.0 mi WNW 10.4 mph - N/A   Overcast
12:55 AM 19.4 °F 9.5 °F 10.4 °F 68% 29.77 in 10.0 mi WNW 8.1 mph - N/A   Overcast
1:15 AM 19.4 °F 10.4 °F 10.4 °F 68% 29.76 in 10.0 mi WNW 6.9 mph - N/A   Overcast
1:35 AM 19.4 °F 10.4 °F 10.4 °F 68% 29.75 in 10.0 mi WNW 6.9 mph - N/A   Overcast
1:55 AM 19.4 °F 9.5 °F 10.4 °F 68% 29.74 in 10.0 mi West 8.1 mph - N/A   Overcast
2:15 AM 19.4 °F 12.8 °F 10.4 °F 68% 29.75 in 10.0 mi West 4.6 mph - N/A   Overcast
2:35 AM 19.4 °F 9.5 °F 10.4 °F 68% 29.75 in 10.0 mi West 8.1 mph - N/A   Overcast
2:55 AM 19.4 °F 9.5 °F 10.4 °F 68% 29.75 in 10.0 mi West 8.1 mph - N/A   Overcast
3:15 AM 17.6 °F 8.2 °F 10.4 °F 73% 29.74 in 10.0 mi West 6.9 mph - N/A   Overcast
3:35 AM 17.6 °F 7.3 °F 10.4 °F 73% 29.74 in 10.0 mi West 8.1 mph - N/A   Overcast
3:55 AM 17.6 °F 9.3 °F 10.4 °F 73% 29.74 in 10.0 mi West 5.8 mph - N/A   Overcast
4:15 AM 17.6 °F 8.2 °F 10.4 °F 73% 29.74 in 10.0 mi West 6.9 mph - N/A   Overcast
4:35 AM 17.6 °F 10.7 °F 10.4 °F 73% 29.74 in 10.0 mi West 4.6 mph - N/A   Overcast
4:55 AM 17.6 °F 7.3 °F 10.4 °F 73% 29.73 in 10.0 mi West 8.1 mph - N/A   Overcast
5:15 AM 17.6 °F 12.3 °F 10.4 °F 73% 29.72 in 8.0 mi West 3.5 mph - N/A   Overcast
5:35 AM 17.6 °F 12.3 °F 10.4 °F 73% 29.72 in 2.5 mi West 3.5 mph - N/A   Overcast
5:55 AM 17.6 °F 10.7 °F 10.4 °F 73% 29.72 in 5.0 mi West 4.6 mph - N/A   Scattered Clouds
6:15 AM 15.8 °F 7.2 °F 10.4 °F 79% 29.72 in 5.0 mi West 5.8 mph - N/A   Clear
6:35 AM 15.8 °F 8.6 °F 10.4 °F 79% 29.70 in 7.0 mi WSW 4.6 mph - N/A   Clear
6:55 AM 15.8 °F 10.2 °F 10.4 °F 79% 29.70 in 6.0 mi WSW 3.5 mph - N/A   Clear
7:15 AM 15.8 °F 10.2 °F 10.4 °F 79% 29.70 in 7.0 mi WSW 3.5 mph - N/A   Scattered Clouds
7:35 AM 15.8 °F 10.2 °F 10.4 °F 79% 29.69 in 7.0 mi WSW 3.5 mph - N/A   Mostly Cloudy
7:55 AM 15.8 °F 8.6 °F 8.6 °F 73% 29.69 in 5.0 mi West 4.6 mph - N/A   Scattered Clouds
8:15 AM 15.8 °F 7.2 °F 10.4 °F 79% 29.70 in 10.0 mi WSW 5.8 mph - N/A   Mostly Cloudy
8:35 AM 15.8 °F 5.1 °F 8.6 °F 73% 29.69 in 10.0 mi WSW 8.1 mph - N/A   Partly Cloudy
8:55 AM 17.6 °F 9.3 °F 10.4 °F 73% 29.69 in 10.0 mi SW 5.8 mph - N/A   Clear
9:15 AM 17.6 °F 7.3 °F 8.6 °F 68% 29.69 in 10.0 mi WSW 8.1 mph - N/A   Clear
9:35 AM 17.6 °F 5.7 °F 10.4 °F 73% 29.70 in 10.0 mi WSW 10.4 mph - N/A   Partly Cloudy
9:55 AM 17.6 °F 5.0 °F 10.4 °F 73% 29.69 in 10.0 mi WSW 11.5 mph 17.3 mph N/A   Partly Cloudy
10:15 AM 19.4 °F 7.9 °F 8.6 °F 63% 29.69 in 9.0 mi West 10.4 mph - N/A   Partly Cloudy
10:35 AM 19.4 °F 10.4 °F 10.4 °F 68% 29.68 in 2.5 mi West 6.9 mph - N/A   Mostly Cloudy
10:55 AM 19.4 °F 8.6 °F 10.4 °F 68% 29.67 in 5.0 mi West 9.2 mph - N/A   Scattered Clouds
11:15 AM 19.4 °F 8.6 °F 12.2 °F 74% 29.65 in 4.0 mi WSW 9.2 mph 16.1 mph N/A   Partly Cloudy
11:35 AM 19.4 °F 9.5 °F 12.2 °F 74% 29.65 in 9.0 mi West 8.1 mph - N/A   Partly Cloudy
11:55 AM 21.2 °F 11.7 °F 12.2 °F 68% 29.62 in 10.0 mi WSW 8.1 mph - N/A   Mostly Cloudy
12:15 PM 21.2 °F 10.1 °F 12.2 °F 68% 29.60 in 10.0 mi WSW 10.4 mph 16.1 mph N/A   Overcast
12:35 PM 23.0 °F 13.9 °F 12.2 °F 63% 29.58 in 10.0 mi SW 8.1 mph - N/A   Overcast
12:55 PM 24.8 °F 14.6 °F 14.0 °F 64% 29.57 in 10.0 mi WSW 10.4 mph 16.1 mph N/A   Mostly Cloudy
1:15 PM 24.8 °F 14.6 °F 14.0 °F 64% 29.57 in 10.0 mi WSW 10.4 mph 17.3 mph N/A   Scattered Clouds
1:35 PM 24.8 °F 14.6 °F 14.0 °F 64% 29.57 in 10.0 mi WSW 10.4 mph - N/A   Overcast
1:55 PM 26.6 °F 15.7 °F 15.8 °F 64% 29.56 in 10.0 mi WSW 12.7 mph 20.7 mph N/A   Overcast
2:15 PM 26.6 °F 14.3 °F 15.8 °F 64% 29.56 in 9.0 mi WSW 16.1 mph 31.1 mph N/A   Overcast
2:35 PM 24.8 °F 11.1 °F 12.2 °F 59% 29.55 in 10.0 mi West 18.4 mph 25.3 mph N/A   Scattered Clouds
2:55 PM 24.8 °F 12.9 °F 12.2 °F 59% 29.56 in 10.0 mi WSW 13.8 mph 23.0 mph N/A   Mostly Cloudy
3:15 PM 24.8 °F 12.4 °F 12.2 °F 59% 29.57 in 10.0 mi WSW 15.0 mph 24.2 mph N/A   Overcast
3:35 PM 24.8 °F 11.5 °F 12.2 °F 59% 29.56 in 10.0 mi WSW 17.3 mph 27.6 mph N/A   Overcast
3:55 PM 24.8 °F 13.4 °F 12.2 °F 59% 29.57 in 10.0 mi WSW 12.7 mph 24.2 mph N/A   Overcast
4:15 PM 24.8 °F 14.0 °F 12.2 °F 59% 29.57 in 10.0 mi West 11.5 mph 21.9 mph N/A   Overcast
4:35 PM 24.8 °F 14.0 °F 14.0 °F 64% 29.57 in 10.0 mi West 11.5 mph 17.3 mph N/A   Overcast
4:55 PM 24.8 °F 15.3 °F 12.2 °F 59% 29.57 in 10.0 mi WSW 9.2 mph 21.9 mph N/A   Overcast
5:15 PM 24.8 °F 12.4 °F 14.0 °F 64% 29.57 in 10.0 mi WSW 15.0 mph 19.6 mph N/A   Overcast
5:35 PM 24.8 °F 14.0 °F 14.0 °F 64% 29.57 in 10.0 mi WSW 11.5 mph 19.6 mph N/A   Mostly Cloudy
5:55 PM 24.8 °F 13.4 °F 15.8 °F 69% 29.57 in 10.0 mi WSW 12.7 mph 21.9 mph N/A   Mostly Cloudy
6:15 PM 26.6 °F 17.5 °F 15.8 °F 64% 29.57 in 10.0 mi WSW 9.2 mph 18.4 mph N/A   Overcast
6:35 PM 26.6 °F 17.5 °F 15.8 °F 64% 29.57 in 10.0 mi WSW 9.2 mph 17.3 mph N/A   Overcast
6:55 PM 26.6 °F 18.2 °F 15.8 °F 64% 29.58 in 10.0 mi WSW 8.1 mph 18.4 mph N/A   Overcast
7:15 PM 26.6 °F 16.8 °F 15.8 °F 64% 29.57 in 10.0 mi West 10.4 mph - N/A   Overcast
7:35 PM 26.6 °F 20.0 °F 15.8 °F 64% 29.58 in 10.0 mi WSW 5.8 mph 17.3 mph N/A   Overcast
7:55 PM 26.6 °F 15.7 °F 17.6 °F 69% 29.58 in 10.0 mi West 12.7 mph 19.6 mph N/A   Overcast
8:15 PM 28.4 °F 19.1 °F 15.8 °F 59% 29.57 in 10.0 mi West 10.4 mph 16.1 mph N/A   Overcast
8:35 PM 28.4 °F 17.5 °F 17.6 °F 64% 29.58 in 10.0 mi West 13.8 mph 23.0 mph N/A   Overcast
8:55 PM 28.4 °F 19.1 °F 17.6 °F 64% 29.58 in 10.0 mi WSW 10.4 mph 17.3 mph N/A   Overcast
9:15 PM 28.4 °F 19.7 °F 15.8 °F 59% 29.57 in 10.0 mi West 9.2 mph 17.3 mph N/A   Overcast
9:35 PM 28.4 °F 18.0 °F 15.8 °F 59% 29.57 in 10.0 mi West 12.7 mph - N/A   Overcast
9:55 PM 28.4 °F 20.4 °F 15.8 °F 59% 29.57 in 10.0 mi West 8.1 mph 16.1 mph N/A   Overcast
10:15 PM 28.4 °F 19.1 °F 17.6 °F 64% 29.57 in 10.0 mi West 10.4 mph 16.1 mph N/A   Overcast
10:35 PM 28.4 °F 19.1 °F 15.8 °F 59% 29.56 in 10.0 mi West 10.4 mph - N/A   Overcast
10:55 PM 28.4 °F 19.1 °F 15.8 °F 59% 29.57 in 10.0 mi West 10.4 mph 19.6 mph N/A   Overcast
11:15 PM 28.4 °F 19.7 °F 17.6 °F 64% 29.57 in 10.0 mi WSW 9.2 mph 16.1 mph N/A   Overcast
11:35 PM 28.4 °F 18.0 °F 15.8 °F 59% 29.57 in 10.0 mi WSW 12.7 mph 17.3 mph N/A   Overcast
11:55 PM 28.4 °F 18.5 °F 15.8 °F 59% 29.55 in 10.0 mi West 11.5 mph 16.1 mph N/A   Overcast